Regional Weather Roundup
Issued by NWS

Home | Current Version | Previous Version | Graphics & Text | Print | Product List | Glossary On
Versions: 1 2 3 4 5 6 7 8 9 10 11 12 13 14 15 16 17 18 19 20 21 22 23 24 25 26 27 28 29 30 31 32 33 34 35 36 37 38 39 40 41 42 43 44 45 46 47 48 49 50
000
ASUS43 KFSD 220010
RWRSD

WEATHER ROUNDUP FOR SOUTH DAKOTA
NATIONAL WEATHER SERVICE SIOUX FALLS SD
700 PM CDT THU MAY 21 2015

NOTE: "FAIR" INDICATES FEW OR NO CLOUDS BELOW 12,000 FEET WITH NO
SIGNIFICANT WEATHER AND/OR OBSTRUCTIONS TO VISIBILITY.


SDZ001>005-009-010-012>017-220100-
NORTHWEST AND NORTH CENTRAL SOUTH DAKOTA

CITY           SKY/WX    TMP DP  RH WIND       PRES   REMARKS
BUFFALO          N/A     66  27  23 SE18G26   30.05F
FAITH            N/A     67  31  26 SE9       30.13F
MOBRIDGE       SUNNY     74  29  19 SW6       30.09F
$$

SDZ012>016-024>037-041>051-057-063-072>074-220100-
SOUTHWEST AND SOUTH CENTRAL SOUTH DAKOTA

CITY           SKY/WX    TMP DP  RH WIND       PRES   REMARKS
RAPID CTY ARPT SUNNY     63  35  35 S10G20    30.13F
PIERRE         SUNNY     70  33  25 SE8       30.12F
CUSTER         CLOUDY    48  36  63 S7        30.17F
ELLSWORTH AFB  SUNNY     63  33  32 S14       30.12F
PHILIP         SUNNY     67  31  26 VRB3      30.13F
PINE RIDGE     CLOUDY    59  40  49 VRB7      30.15F
SPEARFISH      FAIR      61  37  41 SE23G30   30.09F
WINNER         FAIR      69  30  23 S6        30.15F
$$

SDZ004>011-016>023-039-040-220100-
NORTHEAST SOUTH DAKOTA

CITY           SKY/WX    TMP DP  RH WIND       PRES   REMARKS
ABERDEEN       SUNNY     74  38  27 N10       30.09F
WATERTOWN      SUNNY     70  38  31 N14       30.10F
BROOKINGS      SUNNY     72  34  25 N15G23    30.11S
SISSETON         N/A     71  27  19 NE15      30.08F
$$

SDZ017-020-022-023-036>040-048>070-220100-
SOUTHEAST SOUTH DAKOTA

CITY           SKY/WX    TMP DP  RH WIND       PRES   REMARKS
SIOUX FALLS    MOSUNNY   71  36  27 NW10      30.10F
HURON          PTSUNNY   75  38  26 NW3       30.09F
CHAMBERLAIN    SUNNY     68  36  30 S7        30.14F
MITCHELL       SUNNY     73  34  23 W12       30.12F
YANKTON        SUNNY     72  39  30 W8        30.12F
$$

ABBREVIATIONS USED IN REMARKS
   TC - TEMPERATURE IN CELSIUS
  WCI - WIND CHILL INDEX
   HX - HEAT INDEX
  VSB - VISIBILITY



USA.gov is the U.S. government's official web portal to all federal, state and local government web resources and services.